Regional Weather Roundup
Issued by NWS Raleigh/Durham, NC

Home | Current Version | Previous Version | Text Only | Print | Product List | Glossary On
Versions: 1 2 3 4 5 6 7 8 9 10 11 12 13 14 15 16 17 18 19 20 21 22 23 24 25 26 27
000
ASUS42 KRAH 261010
RWRRAH
NORTH CAROLINA WEATHER ROUNDUP
NATIONAL WEATHER SERVICE RALEIGH NC
600 AM EDT FRI MAY 26 2017

NOTE: "FAIR" INDICATES FEW OR NO CLOUDS BELOW 12,000 FEET WITH NO
SIGNIFICANT WEATHER AND/OR OBSTRUCTIONS TO VISIBILITY.

NCZ001-053-055-056-065-067-261100-
WESTERN NORTH CAROLINA

CITY           SKY/WX    TMP DP  RH WIND       PRES   REMARKS
ASHEVILLE      CLEAR     51  47  86 CALM      29.97R
JEFFERSON      CLOUDY    55  48  80 W10G17    29.93R
MORGANTON      CLEAR     60  50  69 SW3       29.96R
HICKORY        PTCLDY    59  50  72 SW5       29.90R
RUTHERFORDTON  CLEAR     58  49  72 CALM      29.94R
MOUNT AIRY     CLEAR     59  51  75 CALM      29.89R
BOONE          CLEAR     54  46  76 NW15G22   29.95R
$$

NCZ021-022-025-041-071-084-088-261100-
CENTRAL NORTH CAROLINA

CITY           SKY/WX    TMP DP  RH WIND       PRES   REMARKS
CHARLOTTE      CLEAR     57  51  80 W5        29.92R
GREENSBORO     PTCLDY    56  53  90 W7        29.87R
WINSTON-SALEM  CLEAR     58  51  78 VRB3      29.88R
RALEIGH-DURHAM CLEAR     60  54  80 W7        29.86R
FORT BRAGG     CLEAR     61  53  72 SW7       29.88R
FAYETTEVILLE   CLEAR     62  54  74 SW9       29.88R
BURLINGTON     CLEAR     59  53  80 SW7       29.86R
LAURINBURG     CLEAR     57  54  89 SW6       29.91R
$$

NCZ011-015-027-028-043-044-047-080-103-261100-
NORTHEASTERN NORTH CAROLINA

CITY           SKY/WX    TMP DP  RH WIND       PRES   REMARKS
ROCKY MT-WILSO CLEAR     61  55  81 SW9       29.83R
GREENVILLE     CLEAR     63  54  72 W8        29.86R
WASHINGTON     CLEAR     62  54  76 SW8       29.83R
ELIZABETH CITY CLEAR     64  56  75 SW15G23   29.77R
MANTEO         CLEAR     65  56  71 W17G24    29.79R
CAPE HATTERAS  CLEAR     70  57  63 W16G24    29.83R
$$

NCZ078-087-090-091-093-098-101-261100-
SOUTHEASTERN NORTH CAROLINA

CITY           SKY/WX    TMP DP  RH WIND       PRES   REMARKS
LUMBERTON      CLEAR     60  54  80 W8        29.90R
GOLDSBORO      CLEAR     61  58  91 W10       29.84R
KINSTON        CLEAR     61  55  79 CALM      29.87R
KENANSVILLE    CLEAR     61  54  77 SW10      29.88R
NEW BERN       CLEAR     63  55  75 W9G18     29.87R
CHERRY POINT   CLEAR     65  53  65 W13       29.88R
BEAUFORT       CLEAR     67  55  65 W14       29.87R
JACKSONVILLE   CLEAR     62  55  77 SW10      29.88R
WILMINGTON     CLEAR     63  54  72 W9        29.90R
$$





USA.gov is the U.S. government's official web portal to all federal, state and local government web resources and services.